Regional Weather Roundup
Issued by NWS

Home | Current Version | Previous Version | Graphics & Text | Print | Product List | Glossary On
Versions: 1 2 3 4 5 6 7 8 9 10 11 12 13 14 15 16 17 18 19 20 21 22 23 24 25 26 27 28 29 30 31 32 33 34 35 36 37 38 39 40 41 42 43 44 45 46 47 48 49 50
000
ASUS45 KBOI 170410
RWRID
WEATHER ROUNDUP FOR IDAHO
NATIONAL WEATHER SERVICE BOISE ID
1000 PM MDT TUE SEP 16 2014

NOTE: "FAIR" INDICATES FEW OR NO CLOUDS BELOW 12000 FEET
WITH NO SIGNIFICANT WEATHER AND/OR OBSTRUCTIONS TO VISIBILITY

IDZ012-014-170500-
SOUTHWEST IDAHO


CITY           SKY/WX    TMP DP  RH WIND       PRES   REMARKS
BOISE          CLEAR     79  41  25 SE10      29.82R
CALDWELL       CLEAR     72  48  43 CALM      29.82S
MOUNTAIN HOME  CLEAR     77  39  25 NW3       29.84R
$$

IDZ016-017-170500-
SOUTHCENTRAL IDAHO


CITY           SKY/WX    TMP DP  RH WIND       PRES   REMARKS
BURLEY         PTCLDY    63  49  60 CALM      29.94S
JEROME         CLEAR     70  41  34 E8        29.93S
TWIN FALLS     CLEAR     66  43  43 SE10      29.94S
$$

IDZ019>023-170500-
SOUTHEAST IDAHO


CITY           SKY/WX    TMP DP  RH WIND       PRES   REMARKS
IDAHO FALLS    CLEAR     71  44  37 S5        30.01R
POCATELLO      PTCLDY    70  37  29 CALM      29.99R
REXBURG        PTCLDY    67  40  37 S6        30.01R
$$

IDZ006-010-011-018-031-032-170500-
CENTRAL IDAHO MOUNTAINS


CITY           SKY/WX    TMP DP  RH WIND       PRES   REMARKS
MCCALL         PTCLDY    63  44  50 CALM      29.98S
HAILEY         PTCLDY    66  39  37 NW12      30.04R
STANLEY          N/A     54  37  52 S5        30.13R
SALMON         CLEAR     55  46  71 CALM      29.97R
CHALLIS        CLEAR     62  45  53 SE6       30.02R
$$

IDZ002-004-006-007-026-170500-
NORTHERN IDAHO


CITY           SKY/WX    TMP DP  RH WIND       PRES   REMARKS
LEWISTON       PTCLDY    75  36  24 SE5       29.78S
LOWELL           N/A     62  57  83 CALM      29.82R
COEUR D`ALENE  CLOUDY    64  43  45 NE7       29.83S
MULLAN PASS    MOCLDY    62  37  39 NW3       30.07R
$$



USA.gov is the U.S. government's official web portal to all federal, state and local government web resources and services.